owner,sensor,date,latitude,longitude,air_pressure(mBar),qcFlag 
WAVCIS,ioos:station:WAVCIS:CSI09:1,2013-02-01T00:00:00Z,29.1015,-89.9782,1025.22,11111222 
WAVCIS,ioos:station:WAVCIS:CSI09:1,2013-02-01T01:00:00Z,29.1015,-89.9782,1025.7,11111222 
WAVCIS,ioos:station:WAVCIS:CSI09:1,2013-02-01T02:00:00Z,29.1015,-89.9782,1025.96,11111222 
WAVCIS,ioos:station:WAVCIS:CSI09:1,2013-02-01T03:00:00Z,29.1015,-89.9782,1025.93,11111222 
WAVCIS,ioos:station:WAVCIS:CSI09:1,2013-02-01T04:00:00Z,29.1015,-89.9782,1026.24,11111222 
WAVCIS,ioos:station:WAVCIS:CSI09:1,2013-02-01T05:00:00Z,29.1015,-89.9782,1026.66,11111222 
WAVCIS,ioos:station:WAVCIS:CSI09:1,2013-02-01T06:00:00Z,29.1015,-89.9782,1026.92,11111222 
WAVCIS,ioos:station:WAVCIS:CSI09:1,2013-02-01T07:00:00Z,29.1015,-89.9782,1027.04,11111222 
WAVCIS,ioos:station:WAVCIS:CSI09:1,2013-02-01T08:00:00Z,29.1015,-89.9782,1026.76,11111222 
WAVCIS,ioos:station:WAVCIS:CSI09:1,2013-02-01T09:00:00Z,29.1015,-89.9782,1026.28,11111222 
WAVCIS,ioos:station:WAVCIS:CSI09:1,2013-02-01T10:00:00Z,29.1015,-89.9782,1025.97,11111222 
WAVCIS,ioos:station:WAVCIS:CSI09:1,2013-02-01T11:00:00Z,29.1015,-89.9782,1026.0,11111222 
WAVCIS,ioos:station:WAVCIS:CSI09:1,2013-02-01T12:00:00Z,29.1015,-89.9782,1026.48,11111222 
WAVCIS,ioos:station:WAVCIS:CSI09:1,2013-02-01T13:00:00Z,29.1015,-89.9782,1027.38,11111222 
WAVCIS,ioos:station:WAVCIS:CSI09:1,2013-02-01T14:00:00Z,29.1015,-89.9782,1028.08,11111222 
WAVCIS,ioos:station:WAVCIS:CSI09:1,2013-02-01T15:00:00Z,29.1015,-89.9782,1028.46,11111222 
WAVCIS,ioos:station:WAVCIS:CSI09:1,2013-02-01T16:00:00Z,29.1015,-89.9782,1028.82,11111222 
WAVCIS,ioos:station:WAVCIS:CSI09:1,2013-02-01T17:00:00Z,29.1015,-89.9782,1028.78,11111222 
WAVCIS,ioos:station:WAVCIS:CSI09:1,2013-02-01T18:00:00Z,29.1015,-89.9782,1028.47,11111222 
WAVCIS,ioos:station:WAVCIS:CSI09:1,2013-02-01T19:00:00Z,29.1015,-89.9782,1027.53,11111222 
WAVCIS,ioos:station:WAVCIS:CSI09:1,2013-02-01T20:00:00Z,29.1015,-89.9782,1026.97,11111222 
WAVCIS,ioos:station:WAVCIS:CSI09:1,2013-02-01T21:00:00Z,29.1015,-89.9782,1026.46,11111222 
WAVCIS,ioos:station:WAVCIS:CSI09:1,2013-02-01T22:00:00Z,29.1015,-89.9782,1026.39,11111222 
WAVCIS,ioos:station:WAVCIS:CSI09:1,2013-02-01T23:00:00Z,29.1015,-89.9782,1026.26,11111222 
WAVCIS,ioos:station:WAVCIS:CSI09:1,2013-02-02T00:00:00Z,29.1015,-89.9782,1026.16,11111222 
WAVCIS,ioos:station:WAVCIS:CSI09:1,2013-02-02T01:00:00Z,29.1015,-89.9782,1026.1,11111222 
WAVCIS,ioos:station:WAVCIS:CSI09:1,2013-02-02T02:00:00Z,29.1015,-89.9782,1026.37,11111222 
WAVCIS,ioos:station:WAVCIS:CSI09:1,2013-02-02T03:00:00Z,29.1015,-89.9782,1026.38,11111222 
WAVCIS,ioos:station:WAVCIS:CSI09:1,2013-02-02T04:00:00Z,29.1015,-89.9782,1026.6,11111222 
WAVCIS,ioos:station:WAVCIS:CSI09:1,2013-02-02T05:00:00Z,29.1015,-89.9782,1026.29,11111222 
WAVCIS,ioos:station:WAVCIS:CSI09:1,2013-02-02T06:00:00Z,29.1015,-89.9782,1025.43,11111222 
WAVCIS,ioos:station:WAVCIS:CSI09:1,2013-02-02T07:00:00Z,29.1015,-89.9782,1025.29,11111222 
WAVCIS,ioos:station:WAVCIS:CSI09:1,2013-02-02T08:00:00Z,29.1015,-89.9782,1025.22,11111222 
WAVCIS,ioos:station:WAVCIS:CSI09:1,2013-02-02T09:00:00Z,29.1015,-89.9782,1024.95,11111222 
WAVCIS,ioos:station:WAVCIS:CSI09:1,2013-02-02T10:00:00Z,29.1015,-89.9782,1024.89,11111222 
WAVCIS,ioos:station:WAVCIS:CSI09:1,2013-02-02T11:00:00Z,29.1015,-89.9782,1024.86,11111222 
WAVCIS,ioos:station:WAVCIS:CSI09:1,2013-02-02T12:00:00Z,29.1015,-89.9782,1025.0,11111222 
WAVCIS,ioos:station:WAVCIS:CSI09:1,2013-02-02T13:00:00Z,29.1015,-89.9782,1025.06,11111222 
WAVCIS,ioos:station:WAVCIS:CSI09:1,2013-02-02T14:00:00Z,29.1015,-89.9782,1025.34,11111222 
WAVCIS,ioos:station:WAVCIS:CSI09:1,2013-02-02T15:00:00Z,29.1015,-89.9782,1025.52,11111222 
WAVCIS,ioos:station:WAVCIS:CSI09:1,2013-02-02T16:00:00Z,29.1015,-89.9782,1025.72,11111222 
WAVCIS,ioos:station:WAVCIS:CSI09:1,2013-02-02T17:00:00Z,29.1015,-89.9782,1024.97,11111222 
WAVCIS,ioos:station:WAVCIS:CSI09:1,2013-02-02T18:00:00Z,29.1015,-89.9782,1024.07,11111222 
WAVCIS,ioos:station:WAVCIS:CSI09:1,2013-02-02T19:00:00Z,29.1015,-89.9782,1023.13,11111222 
WAVCIS,ioos:station:WAVCIS:CSI09:1,2013-02-02T20:00:00Z,29.1015,-89.9782,1022.7,11111222 
WAVCIS,ioos:station:WAVCIS:CSI09:1,2013-02-02T21:00:00Z,29.1015,-89.9782,1022.46,11111222 
WAVCIS,ioos:station:WAVCIS:CSI09:1,2013-02-02T22:00:00Z,29.1015,-89.9782,1022.38,11111222 
WAVCIS,ioos:station:WAVCIS:CSI09:1,2013-02-02T23:00:00Z,29.1015,-89.9782,1022.17,11111222 
WAVCIS,ioos:station:WAVCIS:CSI09:1,2013-02-03T00:00:00Z,29.1015,-89.9782,1022.05,11111222 
WAVCIS,ioos:station:WAVCIS:CSI09:1,2013-02-03T01:00:00Z,29.1015,-89.9782,1022.32,11111222 
WAVCIS,ioos:station:WAVCIS:CSI09:1,2013-02-03T02:00:00Z,29.1015,-89.9782,1022.84,11111222 
WAVCIS,ioos:station:WAVCIS:CSI09:1,2013-02-03T03:00:00Z,29.1015,-89.9782,1023.21,11111222 
WAVCIS,ioos:station:WAVCIS:CSI09:1,2013-02-03T04:00:00Z,29.1015,-89.9782,1023.38,11111222 
WAVCIS,ioos:station:WAVCIS:CSI09:1,2013-02-03T05:00:00Z,29.1015,-89.9782,1023.23,11111222 
WAVCIS,ioos:station:WAVCIS:CSI09:1,2013-02-03T06:00:00Z,29.1015,-89.9782,1023.04,11111222 
WAVCIS,ioos:station:WAVCIS:CSI09:1,2013-02-03T07:00:00Z,29.1015,-89.9782,1022.67,11111222 
WAVCIS,ioos:station:WAVCIS:CSI09:1,2013-02-03T08:00:00Z,29.1015,-89.9782,1022.3,11111222 
WAVCIS,ioos:station:WAVCIS:CSI09:1,2013-02-03T09:00:00Z,29.1015,-89.9782,1022.29,11111222 
WAVCIS,ioos:station:WAVCIS:CSI09:1,2013-02-03T10:00:00Z,29.1015,-89.9782,1022.22,11111222 
WAVCIS,ioos:station:WAVCIS:CSI09:1,2013-02-03T11:00:00Z,29.1015,-89.9782,1022.51,11111222 
WAVCIS,ioos:station:WAVCIS:CSI09:1,2013-02-03T12:00:00Z,29.1015,-89.9782,1022.75,11111222 
WAVCIS,ioos:station:WAVCIS:CSI09:1,2013-02-03T13:00:00Z,29.1015,-89.9782,1023.21,11111222 
WAVCIS,ioos:station:WAVCIS:CSI09:1,2013-02-03T14:00:00Z,29.1015,-89.9782,1024.0,11111222 
WAVCIS,ioos:station:WAVCIS:CSI09:1,2013-02-03T15:00:00Z,29.1015,-89.9782,1024.12,11111222 
WAVCIS,ioos:station:WAVCIS:CSI09:1,2013-02-03T16:00:00Z,29.1015,-89.9782,1024.59,11111222 
WAVCIS,ioos:station:WAVCIS:CSI09:1,2013-02-03T17:00:00Z,29.1015,-89.9782,1024.33,11111222 
WAVCIS,ioos:station:WAVCIS:CSI09:1,2013-02-03T18:00:00Z,29.1015,-89.9782,1023.88,11111222 
WAVCIS,ioos:station:WAVCIS:CSI09:1,2013-02-03T19:00:00Z,29.1015,-89.9782,1022.96,11111222 
WAVCIS,ioos:station:WAVCIS:CSI09:1,2013-02-03T20:00:00Z,29.1015,-89.9782,1022.2,11111222 
WAVCIS,ioos:station:WAVCIS:CSI09:1,2013-02-03T21:00:00Z,29.1015,-89.9782,1021.95,11111222 
WAVCIS,ioos:station:WAVCIS:CSI09:1,2013-02-03T22:00:00Z,29.1015,-89.9782,1021.44,11111222 
WAVCIS,ioos:station:WAVCIS:CSI09:1,2013-02-03T23:00:00Z,29.1015,-89.9782,1021.21,11111222 
WAVCIS,ioos:station:WAVCIS:CSI09:1,2013-02-04T00:00:00Z,29.1015,-89.9782,1020.91,11111222 
WAVCIS,ioos:station:WAVCIS:CSI09:1,2013-02-04T01:00:00Z,29.1015,-89.9782,1020.97,11111222 
WAVCIS,ioos:station:WAVCIS:CSI09:1,2013-02-04T02:00:00Z,29.1015,-89.9782,1021.24,11111222 
WAVCIS,ioos:station:WAVCIS:CSI09:1,2013-02-04T03:00:00Z,29.1015,-89.9782,1021.09,11111222 
WAVCIS,ioos:station:WAVCIS:CSI09:1,2013-02-04T04:00:00Z,29.1015,-89.9782,1020.7,11111222 
WAVCIS,ioos:station:WAVCIS:CSI09:1,2013-02-04T05:00:00Z,29.1015,-89.9782,1020.39,11111222 
WAVCIS,ioos:station:WAVCIS:CSI09:1,2013-02-04T06:00:00Z,29.1015,-89.9782,1019.78,11111222 
WAVCIS,ioos:station:WAVCIS:CSI09:1,2013-02-04T07:00:00Z,29.1015,-89.9782,1019.18,11111222 
WAVCIS,ioos:station:WAVCIS:CSI09:1,2013-02-04T08:00:00Z,29.1015,-89.9782,1018.44,11111222 
WAVCIS,ioos:station:WAVCIS:CSI09:1,2013-02-04T09:00:00Z,29.1015,-89.9782,1018.04,11111222 
WAVCIS,ioos:station:WAVCIS:CSI09:1,2013-02-04T10:00:00Z,29.1015,-89.9782,1017.71,11111222 
WAVCIS,ioos:station:WAVCIS:CSI09:1,2013-02-04T11:00:00Z,29.1015,-89.9782,1017.71,11111222 
WAVCIS,ioos:station:WAVCIS:CSI09:1,2013-02-04T12:00:00Z,29.1015,-89.9782,1017.72,11111222 
WAVCIS,ioos:station:WAVCIS:CSI09:1,2013-02-04T13:00:00Z,29.1015,-89.9782,1017.53,11111222 
WAVCIS,ioos:station:WAVCIS:CSI09:1,2013-02-04T14:00:00Z,29.1015,-89.9782,1018.11,11111222 
WAVCIS,ioos:station:WAVCIS:CSI09:1,2013-02-04T15:00:00Z,29.1015,-89.9782,1018.16,11111222 
WAVCIS,ioos:station:WAVCIS:CSI09:1,2013-02-04T16:00:00Z,29.1015,-89.9782,1018.23,11111222 
WAVCIS,ioos:station:WAVCIS:CSI09:1,2013-02-04T17:00:00Z,29.1015,-89.9782,1017.8,11111222 
WAVCIS,ioos:station:WAVCIS:CSI09:1,2013-02-04T18:00:00Z,29.1015,-89.9782,1016.9,11111222 
WAVCIS,ioos:station:WAVCIS:CSI09:1,2013-02-04T19:00:00Z,29.1015,-89.9782,1015.85,11111222 
WAVCIS,ioos:station:WAVCIS:CSI09:1,2013-02-04T20:00:00Z,29.1015,-89.9782,1015.17,11111222 
WAVCIS,ioos:station:WAVCIS:CSI09:1,2013-02-04T21:00:00Z,29.1015,-89.9782,1014.34,11111222 
WAVCIS,ioos:station:WAVCIS:CSI09:1,2013-02-04T22:00:00Z,29.1015,-89.9782,1013.7,11111222 
WAVCIS,ioos:station:WAVCIS:CSI09:1,2013-02-04T23:00:00Z,29.1015,-89.9782,1014.06,11111222 
WAVCIS,ioos:station:WAVCIS:CSI09:1,2013-02-05T00:00:00Z,29.1015,-89.9782,1013.67,11111222 
WAVCIS,ioos:station:WAVCIS:CSI09:1,2013-02-05T01:00:00Z,29.1015,-89.9782,1013.3,11111222 
WAVCIS,ioos:station:WAVCIS:CSI09:1,2013-02-05T02:00:00Z,29.1015,-89.9782,1013.28,11111222 
WAVCIS,ioos:station:WAVCIS:CSI09:1,2013-02-05T03:00:00Z,29.1015,-89.9782,1013.33,11111222 
WAVCIS,ioos:station:WAVCIS:CSI09:1,2013-02-05T04:00:00Z,29.1015,-89.9782,1012.79,11111222 
WAVCIS,ioos:station:WAVCIS:CSI09:1,2013-02-05T05:00:00Z,29.1015,-89.9782,1012.46,11111222 
WAVCIS,ioos:station:WAVCIS:CSI09:1,2013-02-05T06:00:00Z,29.1015,-89.9782,1013.05,11111222 
WAVCIS,ioos:station:WAVCIS:CSI09:1,2013-02-05T07:00:00Z,29.1015,-89.9782,1012.75,11111222 
WAVCIS,ioos:station:WAVCIS:CSI09:1,2013-02-05T08:00:00Z,29.1015,-89.9782,1012.19,11111222 
WAVCIS,ioos:station:WAVCIS:CSI09:1,2013-02-05T09:00:00Z,29.1015,-89.9782,1011.97,11111222 
WAVCIS,ioos:station:WAVCIS:CSI09:1,2013-02-05T10:00:00Z,29.1015,-89.9782,1012.42,11111222 
WAVCIS,ioos:station:WAVCIS:CSI09:1,2013-02-05T11:00:00Z,29.1015,-89.9782,1012.58,11111222 
WAVCIS,ioos:station:WAVCIS:CSI09:1,2013-02-05T12:00:00Z,29.1015,-89.9782,1013.21,11111222 
WAVCIS,ioos:station:WAVCIS:CSI09:1,2013-02-05T13:00:00Z,29.1015,-89.9782,1013.72,11111222 
WAVCIS,ioos:station:WAVCIS:CSI09:1,2013-02-05T14:00:00Z,29.1015,-89.9782,1014.38,11111222 
WAVCIS,ioos:station:WAVCIS:CSI09:1,2013-02-05T15:00:00Z,29.1015,-89.9782,1015.11,11111222 
WAVCIS,ioos:station:WAVCIS:CSI09:1,2013-02-05T16:00:00Z,29.1015,-89.9782,1015.55,11111222 
WAVCIS,ioos:station:WAVCIS:CSI09:1,2013-02-05T17:00:00Z,29.1015,-89.9782,1015.85,11111222 
WAVCIS,ioos:station:WAVCIS:CSI09:1,2013-02-05T18:00:00Z,29.1015,-89.9782,1015.67,11111222 
WAVCIS,ioos:station:WAVCIS:CSI09:1,2013-02-05T19:00:00Z,29.1015,-89.9782,1015.38,11111222 
WAVCIS,ioos:station:WAVCIS:CSI09:1,2013-02-05T20:00:00Z,29.1015,-89.9782,1014.14,11111222 
WAVCIS,ioos:station:WAVCIS:CSI09:1,2013-02-05T21:00:00Z,29.1015,-89.9782,1013.92,11111222 
WAVCIS,ioos:station:WAVCIS:CSI09:1,2013-02-05T22:00:00Z,29.1015,-89.9782,1014.24,11111222 
WAVCIS,ioos:station:WAVCIS:CSI09:1,2013-02-05T23:00:00Z,29.1015,-89.9782,1014.4,11111222 
WAVCIS,ioos:station:WAVCIS:CSI09:1,2013-02-06T00:00:00Z,29.1015,-89.9782,1014.5,11111222 
WAVCIS,ioos:station:WAVCIS:CSI09:1,2013-02-06T01:00:00Z,29.1015,-89.9782,1015.0,11111222 
WAVCIS,ioos:station:WAVCIS:CSI09:1,2013-02-06T02:00:00Z,29.1015,-89.9782,1015.39,11111222 
WAVCIS,ioos:station:WAVCIS:CSI09:1,2013-02-06T03:00:00Z,29.1015,-89.9782,1016.17,11111222 
WAVCIS,ioos:station:WAVCIS:CSI09:1,2013-02-06T04:00:00Z,29.1015,-89.9782,1016.61,11111222 
WAVCIS,ioos:station:WAVCIS:CSI09:1,2013-02-06T05:00:00Z,29.1015,-89.9782,1016.56,11111222 
WAVCIS,ioos:station:WAVCIS:CSI09:1,2013-02-06T06:00:00Z,29.1015,-89.9782,1016.34,11111222 
WAVCIS,ioos:station:WAVCIS:CSI09:1,2013-02-06T07:00:00Z,29.1015,-89.9782,1016.16,11111222 
WAVCIS,ioos:station:WAVCIS:CSI09:1,2013-02-06T08:00:00Z,29.1015,-89.9782,1015.93,11111222 
WAVCIS,ioos:station:WAVCIS:CSI09:1,2013-02-06T09:00:00Z,29.1015,-89.9782,1015.94,11111222 
WAVCIS,ioos:station:WAVCIS:CSI09:1,2013-02-06T10:00:00Z,29.1015,-89.9782,1016.7,11111222 
WAVCIS,ioos:station:WAVCIS:CSI09:1,2013-02-06T11:00:00Z,29.1015,-89.9782,1016.89,11111222 
WAVCIS,ioos:station:WAVCIS:CSI09:1,2013-02-06T12:00:00Z,29.1015,-89.9782,1017.32,11111222 
WAVCIS,ioos:station:WAVCIS:CSI09:1,2013-02-06T13:00:00Z,29.1015,-89.9782,1017.94,11111222 
WAVCIS,ioos:station:WAVCIS:CSI09:1,2013-02-06T14:00:00Z,29.1015,-89.9782,1018.74,11111222 
WAVCIS,ioos:station:WAVCIS:CSI09:1,2013-02-06T15:00:00Z,29.1015,-89.9782,1018.59,11111222 
WAVCIS,ioos:station:WAVCIS:CSI09:1,2013-02-06T16:00:00Z,29.1015,-89.9782,1019.07,11111222 
WAVCIS,ioos:station:WAVCIS:CSI09:1,2013-02-06T17:00:00Z,29.1015,-89.9782,1018.29,11111222 
WAVCIS,ioos:station:WAVCIS:CSI09:1,2013-02-06T18:00:00Z,29.1015,-89.9782,1017.97,11111222 
WAVCIS,ioos:station:WAVCIS:CSI09:1,2013-02-06T19:00:00Z,29.1015,-89.9782,1016.8,11111222 
WAVCIS,ioos:station:WAVCIS:CSI09:1,2013-02-06T20:00:00Z,29.1015,-89.9782,1016.33,11111222 
WAVCIS,ioos:station:WAVCIS:CSI09:1,2013-02-06T21:00:00Z,29.1015,-89.9782,1015.48,11111222 
WAVCIS,ioos:station:WAVCIS:CSI09:1,2013-02-06T22:00:00Z,29.1015,-89.9782,1015.14,11111222 
WAVCIS,ioos:station:WAVCIS:CSI09:1,2013-02-06T23:00:00Z,29.1015,-89.9782,1015.26,11111222 
WAVCIS,ioos:station:WAVCIS:CSI09:1,2013-02-07T00:00:00Z,29.1015,-89.9782,1014.74,11111222 
WAVCIS,ioos:station:WAVCIS:CSI09:1,2013-02-07T01:00:00Z,29.1015,-89.9782,1014.44,11111222 
WAVCIS,ioos:station:WAVCIS:CSI09:1,2013-02-07T02:00:00Z,29.1015,-89.9782,1013.73,11111222 
WAVCIS,ioos:station:WAVCIS:CSI09:1,2013-02-07T03:00:00Z,29.1015,-89.9782,1013.47,11111222 
WAVCIS,ioos:station:WAVCIS:CSI09:1,2013-02-07T04:00:00Z,29.1015,-89.9782,1012.76,11111222 
WAVCIS,ioos:station:WAVCIS:CSI09:1,2013-02-07T05:00:00Z,29.1015,-89.9782,1012.41,11111222 
WAVCIS,ioos:station:WAVCIS:CSI09:1,2013-02-07T06:00:00Z,29.1015,-89.9782,1011.99,11111222 
WAVCIS,ioos:station:WAVCIS:CSI09:1,2013-02-07T07:00:00Z,29.1015,-89.9782,1011.15,11111222 
WAVCIS,ioos:station:WAVCIS:CSI09:1,2013-02-07T08:00:00Z,29.1015,-89.9782,1008.69,11111222 
WAVCIS,ioos:station:WAVCIS:CSI09:1,2013-02-07T09:00:00Z,29.1015,-89.9782,1009.35,11111222 
WAVCIS,ioos:station:WAVCIS:CSI09:1,2013-02-07T10:00:00Z,29.1015,-89.9782,1008.58,11111222 
WAVCIS,ioos:station:WAVCIS:CSI09:1,2013-02-07T11:00:00Z,29.1015,-89.9782,1009.19,11111222 
WAVCIS,ioos:station:WAVCIS:CSI09:1,2013-02-07T12:00:00Z,29.1015,-89.9782,1009.62,11111222 
WAVCIS,ioos:station:WAVCIS:CSI09:1,2013-02-07T13:00:00Z,29.1015,-89.9782,1010.25,11111222 
WAVCIS,ioos:station:WAVCIS:CSI09:1,2013-02-07T14:00:00Z,29.1015,-89.9782,1011.25,11111222 
WAVCIS,ioos:station:WAVCIS:CSI09:1,2013-02-07T15:00:00Z,29.1015,-89.9782,1012.31,11111222 
WAVCIS,ioos:station:WAVCIS:CSI09:1,2013-02-07T16:00:00Z,29.1015,-89.9782,1012.76,11111222 
WAVCIS,ioos:station:WAVCIS:CSI09:1,2013-02-07T17:00:00Z,29.1015,-89.9782,1013.12,11111222 
WAVCIS,ioos:station:WAVCIS:CSI09:1,2013-02-07T18:00:00Z,29.1015,-89.9782,1013.01,11111222 
WAVCIS,ioos:station:WAVCIS:CSI09:1,2013-02-07T19:00:00Z,29.1015,-89.9782,1012.49,11111222 
WAVCIS,ioos:station:WAVCIS:CSI09:1,2013-02-07T20:00:00Z,29.1015,-89.9782,1012.19,11111222 
WAVCIS,ioos:station:WAVCIS:CSI09:1,2013-02-07T21:00:00Z,29.1015,-89.9782,1011.98,11111222 
WAVCIS,ioos:station:WAVCIS:CSI09:1,2013-02-07T22:00:00Z,29.1015,-89.9782,1012.15,11111222 
WAVCIS,ioos:station:WAVCIS:CSI09:1,2013-02-07T23:00:00Z,29.1015,-89.9782,1012.51,11111222 
WAVCIS,ioos:station:WAVCIS:CSI09:1,2013-02-08T00:00:00Z,29.1015,-89.9782,1012.95,11111222 
WAVCIS,ioos:station:WAVCIS:CSI09:1,2013-02-08T01:00:00Z,29.1015,-89.9782,1013.47,11111222 
WAVCIS,ioos:station:WAVCIS:CSI09:1,2013-02-08T02:00:00Z,29.1015,-89.9782,1013.9,11111222 
WAVCIS,ioos:station:WAVCIS:CSI09:1,2013-02-08T03:00:00Z,29.1015,-89.9782,1014.08,11111222 
WAVCIS,ioos:station:WAVCIS:CSI09:1,2013-02-08T04:00:00Z,29.1015,-89.9782,1013.81,11111222 
WAVCIS,ioos:station:WAVCIS:CSI09:1,2013-02-08T05:00:00Z,29.1015,-89.9782,1014.1,11111222 
WAVCIS,ioos:station:WAVCIS:CSI09:1,2013-02-08T06:00:00Z,29.1015,-89.9782,1014.04,11111222 
WAVCIS,ioos:station:WAVCIS:CSI09:1,2013-02-08T07:00:00Z,29.1015,-89.9782,1014.25,11111222 
WAVCIS,ioos:station:WAVCIS:CSI09:1,2013-02-08T08:00:00Z,29.1015,-89.9782,1014.04,11111222 
WAVCIS,ioos:station:WAVCIS:CSI09:1,2013-02-08T09:00:00Z,29.1015,-89.9782,1014.44,11111222 
WAVCIS,ioos:station:WAVCIS:CSI09:1,2013-02-08T10:00:00Z,29.1015,-89.9782,1014.79,11111222 
WAVCIS,ioos:station:WAVCIS:CSI09:1,2013-02-08T11:00:00Z,29.1015,-89.9782,1015.45,11111222 
WAVCIS,ioos:station:WAVCIS:CSI09:1,2013-02-08T12:00:00Z,29.1015,-89.9782,1016.03,11111222 
WAVCIS,ioos:station:WAVCIS:CSI09:1,2013-02-08T13:00:00Z,29.1015,-89.9782,1016.69,11111222 
WAVCIS,ioos:station:WAVCIS:CSI09:1,2013-02-08T14:00:00Z,29.1015,-89.9782,1017.08,11111222 
WAVCIS,ioos:station:WAVCIS:CSI09:1,2013-02-08T15:00:00Z,29.1015,-89.9782,1017.75,11111222 
WAVCIS,ioos:station:WAVCIS:CSI09:1,2013-02-08T16:00:00Z,29.1015,-89.9782,1018.48,11111222 
WAVCIS,ioos:station:WAVCIS:CSI09:1,2013-02-08T17:00:00Z,29.1015,-89.9782,1018.74,11111222 
WAVCIS,ioos:station:WAVCIS:CSI09:1,2013-02-08T18:00:00Z,29.1015,-89.9782,1018.45,11111222 
WAVCIS,ioos:station:WAVCIS:CSI09:1,2013-02-08T19:00:00Z,29.1015,-89.9782,1017.87,11111222 
WAVCIS,ioos:station:WAVCIS:CSI09:1,2013-02-08T20:00:00Z,29.1015,-89.9782,1017.24,11111222 
WAVCIS,ioos:station:WAVCIS:CSI09:1,2013-02-08T21:00:00Z,29.1015,-89.9782,1017.12,11111222 
WAVCIS,ioos:station:WAVCIS:CSI09:1,2013-02-08T22:00:00Z,29.1015,-89.9782,1017.24,11111222 
WAVCIS,ioos:station:WAVCIS:CSI09:1,2013-02-08T23:00:00Z,29.1015,-89.9782,1017.4,11111222 
WAVCIS,ioos:station:WAVCIS:CSI09:1,2013-02-09T00:00:00Z,29.1015,-89.9782,1017.91,11111222 
WAVCIS,ioos:station:WAVCIS:CSI09:1,2013-02-09T01:00:00Z,29.1015,-89.9782,1018.24,11111222 
WAVCIS,ioos:station:WAVCIS:CSI09:1,2013-02-09T02:00:00Z,29.1015,-89.9782,1018.92,11111222 
WAVCIS,ioos:station:WAVCIS:CSI09:1,2013-02-09T03:00:00Z,29.1015,-89.9782,1019.43,11111222 
WAVCIS,ioos:station:WAVCIS:CSI09:1,2013-02-09T04:00:00Z,29.1015,-89.9782,1019.58,11111222 
WAVCIS,ioos:station:WAVCIS:CSI09:1,2013-02-09T05:00:00Z,29.1015,-89.9782,1019.6,11111222 
WAVCIS,ioos:station:WAVCIS:CSI09:1,2013-02-09T06:00:00Z,29.1015,-89.9782,1019.53,11111222 
WAVCIS,ioos:station:WAVCIS:CSI09:1,2013-02-09T07:00:00Z,29.1015,-89.9782,1019.31,11111222 
WAVCIS,ioos:station:WAVCIS:CSI09:1,2013-02-09T08:00:00Z,29.1015,-89.9782,1019.27,11111222 
WAVCIS,ioos:station:WAVCIS:CSI09:1,2013-02-09T09:00:00Z,29.1015,-89.9782,1019.32,11111222 
WAVCIS,ioos:station:WAVCIS:CSI09:1,2013-02-09T10:00:00Z,29.1015,-89.9782,1019.34,11111222 
WAVCIS,ioos:station:WAVCIS:CSI09:1,2013-02-09T11:00:00Z,29.1015,-89.9782,1019.53,11111222 
WAVCIS,ioos:station:WAVCIS:CSI09:1,2013-02-09T12:00:00Z,29.1015,-89.9782,1019.87,11111222 
WAVCIS,ioos:station:WAVCIS:CSI09:1,2013-02-09T13:00:00Z,29.1015,-89.9782,1020.56,11111222 
WAVCIS,ioos:station:WAVCIS:CSI09:1,2013-02-09T14:00:00Z,29.1015,-89.9782,1020.78,11111222 
WAVCIS,ioos:station:WAVCIS:CSI09:1,2013-02-09T15:00:00Z,29.1015,-89.9782,1021.15,11111222 
WAVCIS,ioos:station:WAVCIS:CSI09:1,2013-02-09T16:00:00Z,29.1015,-89.9782,1021.29,11111222 
WAVCIS,ioos:station:WAVCIS:CSI09:1,2013-02-09T17:00:00Z,29.1015,-89.9782,1021.34,11111222 
WAVCIS,ioos:station:WAVCIS:CSI09:1,2013-02-09T18:00:00Z,29.1015,-89.9782,1020.9,11111222 
WAVCIS,ioos:station:WAVCIS:CSI09:1,2013-02-09T19:00:00Z,29.1015,-89.9782,1019.58,11111222 
WAVCIS,ioos:station:WAVCIS:CSI09:1,2013-02-09T20:00:00Z,29.1015,-89.9782,1018.81,11111222 
WAVCIS,ioos:station:WAVCIS:CSI09:1,2013-02-09T21:00:00Z,29.1015,-89.9782,1018.13,11111222 
WAVCIS,ioos:station:WAVCIS:CSI09:1,2013-02-09T22:00:00Z,29.1015,-89.9782,1018.02,11111222 
WAVCIS,ioos:station:WAVCIS:CSI09:1,2013-02-09T23:00:00Z,29.1015,-89.9782,1017.8,11111222 
WAVCIS,ioos:station:WAVCIS:CSI09:1,2013-02-10T00:00:00Z,29.1015,-89.9782,1017.67,11111222 
WAVCIS,ioos:station:WAVCIS:CSI09:1,2013-02-10T01:00:00Z,29.1015,-89.9782,1017.71,11111222 
WAVCIS,ioos:station:WAVCIS:CSI09:1,2013-02-10T02:00:00Z,29.1015,-89.9782,1017.85,11111222 
WAVCIS,ioos:station:WAVCIS:CSI09:1,2013-02-10T03:00:00Z,29.1015,-89.9782,1017.46,11111222 
WAVCIS,ioos:station:WAVCIS:CSI09:1,2013-02-10T04:00:00Z,29.1015,-89.9782,1017.22,11111222 
WAVCIS,ioos:station:WAVCIS:CSI09:1,2013-02-10T05:00:00Z,29.1015,-89.9782,1016.62,11111222 
WAVCIS,ioos:station:WAVCIS:CSI09:1,2013-02-10T06:00:00Z,29.1015,-89.9782,1016.12,11111222 
WAVCIS,ioos:station:WAVCIS:CSI09:1,2013-02-10T07:00:00Z,29.1015,-89.9782,1015.75,11111222 
WAVCIS,ioos:station:WAVCIS:CSI09:1,2013-02-10T08:00:00Z,29.1015,-89.9782,1015.62,11111222 
WAVCIS,ioos:station:WAVCIS:CSI09:1,2013-02-10T09:00:00Z,29.1015,-89.9782,1015.31,11111222 
WAVCIS,ioos:station:WAVCIS:CSI09:1,2013-02-10T10:00:00Z,29.1015,-89.9782,1014.54,11111222 
WAVCIS,ioos:station:WAVCIS:CSI09:1,2013-02-10T11:00:00Z,29.1015,-89.9782,1014.33,11111222 
WAVCIS,ioos:station:WAVCIS:CSI09:1,2013-02-10T12:00:00Z,29.1015,-89.9782,1015.07,11111222 
WAVCIS,ioos:station:WAVCIS:CSI09:1,2013-02-10T13:00:00Z,29.1015,-89.9782,1015.14,11111222 
WAVCIS,ioos:station:WAVCIS:CSI09:1,2013-02-10T14:00:00Z,29.1015,-89.9782,1015.97,11111222 
WAVCIS,ioos:station:WAVCIS:CSI09:1,2013-02-10T15:00:00Z,29.1015,-89.9782,1016.97,11111222 
WAVCIS,ioos:station:WAVCIS:CSI09:1,2013-02-10T16:00:00Z,29.1015,-89.9782,1016.61,11111222 
WAVCIS,ioos:station:WAVCIS:CSI09:1,2013-02-10T17:00:00Z,29.1015,-89.9782,1015.42,11111222 
WAVCIS,ioos:station:WAVCIS:CSI09:1,2013-02-10T18:00:00Z,29.1015,-89.9782,1013.84,11111222 
WAVCIS,ioos:station:WAVCIS:CSI09:1,2013-02-10T19:00:00Z,29.1015,-89.9782,1013.53,11111222 
WAVCIS,ioos:station:WAVCIS:CSI09:1,2013-02-10T20:00:00Z,29.1015,-89.9782,1013.33,11111222 
WAVCIS,ioos:station:WAVCIS:CSI09:1,2013-02-10T21:00:00Z,29.1015,-89.9782,1013.45,11111222 
WAVCIS,ioos:station:WAVCIS:CSI09:1,2013-02-10T22:00:00Z,29.1015,-89.9782,1014.32,11111222 
WAVCIS,ioos:station:WAVCIS:CSI09:1,2013-02-10T23:00:00Z,29.1015,-89.9782,1014.85,11111222 
WAVCIS,ioos:station:WAVCIS:CSI09:1,2013-02-11T00:00:00Z,29.1015,-89.9782,1014.55,11111222 
WAVCIS,ioos:station:WAVCIS:CSI09:1,2013-02-11T01:00:00Z,29.1015,-89.9782,1014.97,11111222 
WAVCIS,ioos:station:WAVCIS:CSI09:1,2013-02-11T02:00:00Z,29.1015,-89.9782,1015.65,11111222 
WAVCIS,ioos:station:WAVCIS:CSI09:1,2013-02-11T03:00:00Z,29.1015,-89.9782,1016.12,11111222 
WAVCIS,ioos:station:WAVCIS:CSI09:1,2013-02-11T04:00:00Z,29.1015,-89.9782,1016.36,11111222 
WAVCIS,ioos:station:WAVCIS:CSI09:1,2013-02-11T05:00:00Z,29.1015,-89.9782,1016.48,11111222 
WAVCIS,ioos:station:WAVCIS:CSI09:1,2013-02-11T06:00:00Z,29.1015,-89.9782,1016.12,11111222 
WAVCIS,ioos:station:WAVCIS:CSI09:1,2013-02-11T07:00:00Z,29.1015,-89.9782,1016.03,11111222 
WAVCIS,ioos:station:WAVCIS:CSI09:1,2013-02-11T08:00:00Z,29.1015,-89.9782,1015.75,11111222 
WAVCIS,ioos:station:WAVCIS:CSI09:1,2013-02-11T09:00:00Z,29.1015,-89.9782,1015.48,11111222 
WAVCIS,ioos:station:WAVCIS:CSI09:1,2013-02-11T10:00:00Z,29.1015,-89.9782,1015.54,11111222 
WAVCIS,ioos:station:WAVCIS:CSI09:1,2013-02-11T11:00:00Z,29.1015,-89.9782,1015.58,11111222 
WAVCIS,ioos:station:WAVCIS:CSI09:1,2013-02-11T12:00:00Z,29.1015,-89.9782,1015.88,11111222 
WAVCIS,ioos:station:WAVCIS:CSI09:1,2013-02-11T13:00:00Z,29.1015,-89.9782,1016.38,11111222 
WAVCIS,ioos:station:WAVCIS:CSI09:1,2013-02-11T14:00:00Z,29.1015,-89.9782,1016.95,11111222 
WAVCIS,ioos:station:WAVCIS:CSI09:1,2013-02-11T15:00:00Z,29.1015,-89.9782,1017.48,11111222 
WAVCIS,ioos:station:WAVCIS:CSI09:1,2013-02-11T16:00:00Z,29.1015,-89.9782,1017.87,11111222 
WAVCIS,ioos:station:WAVCIS:CSI09:1,2013-02-11T17:00:00Z,29.1015,-89.9782,1017.57,11111222 
WAVCIS,ioos:station:WAVCIS:CSI09:1,2013-02-11T18:00:00Z,29.1015,-89.9782,1017.06,11111222 
WAVCIS,ioos:station:WAVCIS:CSI09:1,2013-02-11T19:00:00Z,29.1015,-89.9782,1016.36,11111222 
WAVCIS,ioos:station:WAVCIS:CSI09:1,2013-02-11T20:00:00Z,29.1015,-89.9782,1015.71,11111222 
WAVCIS,ioos:station:WAVCIS:CSI09:1,2013-02-11T21:00:00Z,29.1015,-89.9782,1015.45,11111222 
WAVCIS,ioos:station:WAVCIS:CSI09:1,2013-02-11T22:00:00Z,29.1015,-89.9782,1015.12,11111222 